Regional Weather Roundup
Issued by NWS

Home | Current Version | Previous Version | Graphics & Text | Print | Product List | Glossary On
Versions: 1 2 3 4 5 6 7 8 9 10 11 12 13 14 15 16 17 18 19 20 21 22 23 24 25 26 27 28 29 30 31 32 33 34 35 36 37 38 39 40 41 42 43 44 45 46
000
ASUS45 KBOU 261010
RWRCO

WEATHER ROUNDUP FOR COLORADO
NATIONAL WEATHER SERVICE PUEBLO CO
400 AM MDT THU APR 26 2018

NOTE: "FAIR" INDICATES FEW OR NO CLOUDS BELOW 12000 FEET WITH NO
SIGNIFICANT WEATHER AND/OR OBSTRUCTIONS TO VISIBILITY.

COZ001>005-013-030-031-261100-
...NORTHWEST COLORADO...

CITY           SKY/WX    TMP DP  RH WIND       PRES   REMARKS
CRAIG          CLEAR     36  23  59 SW5       30.20R
HAYDEN         CLEAR     40  21  46 S8        30.20R
MEEKER         CLEAR     34  25  69 CALM      30.19R
RABBIT EARS PA NOT AVBL
STEAMBOAT SPGS FAIR      33  23  67 SE5       30.19R WCI  28
WALDEN         FAIR      34  16  47 N15       30.23R WCI  24
$$

COZ006>008-011-261100-
...WEST CENTRAL VALLEYS...

CITY           SKY/WX    TMP DP  RH WIND       PRES   REMARKS
GRAND JUNCTION PTCLDY    44  13  28 E3        30.10R
MONTROSE       PTCLDY    37  16  42 SE8       30.15R
EAGLE          PTCLDY    36  16  44 SE5       30.19R
RIFLE          CLEAR     40  24  53 CALM      30.15R
DELTA          NOT AVBL
NUCLA          FAIR      43   7  22 E6        30.17S
$$

COZ017>023-064>068-261100-
...SOUTHWEST COLORADO...

CITY           SKY/WX    TMP DP  RH WIND       PRES   REMARKS
DURANGO        CLEAR     43   6  21 NW5       30.11R
CORTEZ         CLEAR     33   8  35 E7        30.14R WCI  27
PAGOSA SPRINGS FAIR      31   7  37 CALM      30.15S
TELLURIDE      CLEAR     37   8  30 CALM      30.27S
WOLF CREEK PAS PTCLDY    30  -4  22 CALM      30.34F
$$

COZ009-010-012-014-032>034-037-058>063-261100-
...CENTRAL COLORADO...

CITY           SKY/WX    TMP DP  RH WIND       PRES   REMARKS
ASPEN          PTCLDY    32  16  51 S6        30.19R WCI  26
BUENA VISTA    FAIR      29  21  70 W3        30.15R
COPPER MTN     NOT AVBL
BERTHOUD PASS  FAIR      21  12  68 NW21G35   30.26R WCI   6
COTTONWOOD PAS CLEAR     43   5  21 N6        30.21R
GUNNISON       CLEAR     30  17  58 NW3       30.19R
KREMMLING      MOCLDY    45  19  36 NW3       30.18R
LEADVILLE      CLEAR     31  11  43 N6        30.21R WCI  25
MONARCH PASS   CLEAR     28   5  37 W25       30.36S WCI  14
SALIDA         FAIR      35  20  54 N3        30.20S
SUNLIGHT       CLEAR     30  14  51 NW6G18    30.32R WCI  24
WILKERSON PASS PTCLDY    32   3  29 N16G23    30.27F WCI  21
$$

COZ069>075-261100-
...SAN LUIS VALLEY/SANGRE DE CRISTO MOUNTAINS...

CITY           SKY/WX    TMP DP  RH WIND       PRES   REMARKS
ALAMOSA        CLEAR     26  14  60 SE3       30.12R
DEL NORTE      FAIR      41   8  26 W6        30.14S
LA VETA PASS   CLEAR     36   5  27 SW15      30.29R
SAGUACHE       NOT AVBL
$$

COZ035-036-038>040-261100-
...NORTHERN COLORADO FRONT RANGE...

CITY           SKY/WX    TMP DP  RH WIND       PRES   REMARKS
DENVER INTL AP CLOUDY    48  26  42 N24G33    30.10R
DMNS CITY PARK NOT AVBL
AURORA         MOCLDY    44  27  50 N14       30.13R
FRONT RANGE AP FAIR      46  29  52 N18       30.12R
ERIE MUNI ARPT FAIR      51  24  35 N16G23    30.18R
BOULDER MUN AP MOCLDY    50  27  40 CALM      30.13R
CENTENNIAL     CLOUDY    46  26  45 NW14      30.13R
BROOMFIELD     MOCLDY    50  27  40 N22G28    30.13R
LOVELAND       MOCLDY    50  25  37 N25G35    30.12R
LONGMONT       FAIR      54  24  31 N13G20    30.14R
$$

COZ041-046-047-076>085-087-088-261100-
...PIKES PEAK/PALMER DIVIDE AND SOUTHERN FOOTHILLS...

CITY           SKY/WX    TMP DP  RH WIND       PRES   REMARKS
COLO. SPRINGS  MOCLDY    49  23  36 N37G48    30.05R
A. F. ACADEMY  MOCLDY    45  22  41 NW24      30.11R
SCHRIEVER AFB  NOT AVBL
CHEYENNE MTN   NOT AVBL
ELLICOTT         N/A    N/A N/A N/A N20G25    30.04R
FALCON         FAIR      44  20  38 N18G30    30.10R
FORT CARSON    PTCLDY    42  27  56 N9        30.02R
LIMON          MOCLDY    44  28  53 NW15      30.03R
MONUMENT HILL  CLOUDY    39  23  52 N18G28    30.14R
CANON CITY     FAIR      45  28  53 W13       30.01R
WALSENBURG     FAIR      39  25  56 SW8       30.03R
TRINIDAD       MOCLDY    51  27  39 W18       29.99R
$$

COZ042>045-048>051-090-091-261100-
...NORTHEAST COLORADO...

CITY           SKY/WX    TMP DP  RH WIND       PRES   REMARKS
GREELEY ARPT   NOT AVBL
AKRON          CLOUDY    48  28  46 N26G38    29.98R
BURLINGTON     CLEAR     36  31  82 MISG      29.98R
WRAY           FAIR      41  34  75 W7        29.92F
YUMA           NOT AVBL
STERLING       NOT AVBL
HOLYOKE        FAIR      46  34  61 NW15G21   29.91S
FORT MORGAN    FAIR      50  24  35 N31G39    30.03R
$$

COZ086-089-092>099-261100-
...SOUTHEAST COLORADO...

CITY           SKY/WX    TMP DP  RH WIND       PRES   REMARKS
PUEBLO         PTCLDY    40  30  67 NW8       29.97S
LA JUNTA       CLEAR     36  32  85 NW6       29.94S
LAMAR          CLEAR     32  29  88 SW3       29.91F
SPRINGFIELD      N/A     36  30  79 SW13      29.94F
$$





USA.gov is the U.S. government's official web portal to all federal, state and local government web resources and services.